User: anonymous   Login
Location: Vancouver
(49.2500°N, 123.1330°W)
Time: 18:19:02
(UTC-07:00)
Language:

Cosmos 1939 Rocket - Orbit

View from above orbital plane
View from above orbital plane
View from above satellite
View from above satellite

Ground track
Ground track

The orbit data is extracted from the following two-line orbital elements,

1 19046U 88032B   17086.93201764 +.00000431 +00000-0 +36870-4 0  9991
2 19046 097.5431 136.1610 0036334 242.1797 117.5744 15.02183450560155
Epoch (UTC): 27 March 2017 22:22:06
Eccentricity: 0.0036334
inclination: 97.5431°
perigee height: 535 km
apogee height: 585 km
right ascension of ascending node: 136.1610°
argument of perigee: 242.1797°
revolutions per day: 15.02183450
mean anomaly at epoch: 117.5744°
orbit number at epoch: 56015

The dashed part of the orbit path shows where the satellite is in the earth's shadow,  

DLR